Regional Weather Roundup
Issued by NWS State College, PA

Home | Current Version | Previous Version | Text Only | Print | Product List | Glossary On
Versions: 1 2 3 4 5 6 7 8 9 10 11 12 13 14 15 16 17 18 19 20 21 22 23 24 25 26 27 28 29 30 31 32 33 34 35 36 37 38 39 40 41 42 43 44 45 46 47 48 49 50
000
ASUS41 KCTP 290410
RWRCTP

REGIONAL WEATHER ROUNDUP
NATIONAL WEATHER SERVICE STATE COLLEGE PA
1200 AM EDT FRI AUG 29 2014

Note: "fair" indicates few or no clouds below 12,000 feet with no
significant weather and/or obstructions to visibility.

* = STATION THAT DOES NOT REPORT PRECIPITATION /E.G. RAIN...SNOW...ETC/
    THUNDER OR FOG.

PAZ002>004-007>009-013>016-020>023-029>032-290500-
WESTERN PENNSYLVANIA

CITY           SKY/WX    TMP DP  RH WIND       PRES   REMARKS
ERIE           PTCLDY    57  51  80 S5        30.16R
MEADVILLE      CLEAR     54  49  83 CALM      30.18R
FRANKLIN*      CLEAR     52  46  82 CALM      30.19R
NEW CASTLE     FAIR      52  52 100 CALM      30.19R
BEAVER COUNTY  NOT AVBL
BUTLER*        CLEAR     54  48  82 CALM      30.19R
PITTSBURGH INT PTCLDY    61  51  70 CALM      30.17R
PITTSBURGH     CLEAR     61  50  67 N3        30.16R
INDIANA*       MOCLDY    55  54  94 CALM      30.21R
LATROBE        CLEAR     55  55 100 CALM      30.18R
WASHINGTON CO* CLEAR     52  48  87 CALM      30.17R
$$

PAZ004>006-010>012-017>019-024>028-033>037-041-042-045-046-049>053-290500-
CENTRAL PENNSYLVANIA

CITY           SKY/WX    TMP DP  RH WIND       PRES   REMARKS
BRADFORD       CLEAR     47  44  90 CALM      30.19R
DUBOIS         CLEAR     52  47  83 NE3       30.17R
CLEARFIELD     CLEAR     52  49  89 N5        30.18R
JOHNSTOWN      CLEAR     57  48  72 N5        30.19R
ALTOONA        CLEAR     54  52  93 S5        30.17R
STATE COLLEGE  PTCLDY    58  50  74 N3        30.16R
WILLIAMSPORT   CLEAR     56  49  77 CALM      30.14R
SELINSGROVE    CLEAR     55  52  89 N3        30.14R
FT INDIANTOWN  CLEAR     63  48  59 N3        30.13R
CAPITAL CITY   CLEAR     67  48  50 N6        30.13R
HARRISBURG     PTCLDY    63  50  62 CALM      30.12R
YORK           CLEAR     55  53  93 CALM      30.12R
$$

PAZ038>040-043-044-047-048-054-055-060>062-067>071-290500-
EASTERN PENNSYLVANIA

CITY           SKY/WX    TMP DP  RH WIND       PRES   REMARKS
SCRANTON       CLEAR     57  49  74 E3        30.13R
MOUNT POCONO   CLEAR     50  46  86 NW5       30.13R
ALLENTOWN      CLEAR     61  47  59 NW6       30.11R
QUAKERTOWN*    CLEAR     61  48  63 MISG      30.11S
READING        CLEAR     62  49  62 NW6       30.11R
LANCASTER      CLEAR     60  50  69 NE7       30.12R
COATESVILLE    CLEAR     63  54  72 N3        30.13R
POTTSTOWN      CLEAR     60  47  61 NW5       30.12R
BLUE BELL      CLEAR     63  50  63 CALM      30.10R
DOYLESTOWN     CLEAR     60  48  64 N5        30.09R
WILLOW GROVE   NOT AVBL
NORTH PHILA    CLEAR     66  46  48 N9        30.11R
PHILADELPHIA   CLEAR     68  48  48 N13       30.10R
$$


USA.gov is the U.S. government's official web portal to all federal, state and local government web resources and services.